STARLINK-35384, 65884

Orbit data source: Space-Track

STARLINK-35384, 65884 is a payload satellite owned by SpaceX/Seattle (US) in LEO that was launched on Tue, 07 Oct 2025 UTC via an FALCON 9 launch vehicle from the Air Force Eastern Test Range (AFETR). Payload-class satellites include a variety of spacecraft equipped with specific instruments for various scientific and technological missions. These include communications satellites like Starlink; space stations such as the ISS; scientific satellites like the Hubble; Earth observation satellites from companies like Planet Labs, Umbra, and HawkEye 360; GPS; miniature CubeSats for education and research; and military/defense satellites.

Loading next visibility...
Identifier
65884, 2025-224C
Orbit
LEO
Country
Flag of USUS
Related business
Manufacturer
SpaceX/Seattle
Mission
Operational spacecraft
Bus & Motor
STARLINK V2MO, Unknown motor
Mass
575 kg wet, ~530 kg dry
Launch date (UTC)
2025-10-07 (1 month ago)
Launch vehicle
FALCON 9
Launch site
Air Force Eastern Test Range (AFETR)
Object type
Payload
Rocket body
Debris
Shape & HBR
Unknown shape, 17.7 m
Radar Cross Section
RCS unknown

Expand to show TLE details & history
Last TLE update: 2 days ago

TLE from 2 days ago
0 STARLINK-35384
1 65884U 25224C   25312.73834263  .00186127  00000-0  32610-2 0  9994
2 65884  53.1601 214.0421 0000817  97.1699 262.9403 15.49435535  6297
Epoch: 2025-11-08T17:43Z
TLE epoch observation values (Epoch: 2025-11-08T17:43:12.803Z)
Latitude
-0.00001°
Longitude
-99.9249°
Altitude
419.352 km
Speed
7.661 km/s
True Right ascension
14h 16m 10s
True Declination
0° 00' 00"
Sunlit
Object was in daylight at epoch
Visualization orbit readout
Latitude
Unknown
Longitude
Unknown
Altitude
Unknown
Speed
Unknown
Apparent Right ascension
Unknown
Apparent Declination
Unknown
Sunlit
N/A
Visualization observer readout
Local Sidereal Time
03:09:37
Azimuth
Unknown
Elevation
Unknown
Doppler factor
Unknown
Orbital elements
Apogee altitude
419.19 km
Perigee altitude
418.079 km
Semi-major axis
6,796.772 km
Eccentricity
0.00008
Inclination
53.1601°
RAAN
214.0421°
Arg. of periapsis
97.1699°
True anomaly
262.93101°
Mean anomaly
262.9403°
Eccentric anomaly
262.93565°
Mean motion
3.87337 °/min
Orbital period
92.94 mins
BSTAR
0.003261
Loading maneuver chart data...
Computing Atmospheric mass density...
Loading historical data...
Loading historical data...
Loading historical data...
Loading historical data...
Loading historical data...
Loading historical data...
Loading historical data...

Documentation

Showing up to 5 results
|